Tacoma, WA
on Saturday, November 10, 2012

Saturday
Previous Day Next Day
Daily Summary
 ActualAverage (KSEA)Record (KSEA)
Temperature
Mean Temperature °F 47°F  
Max Temperature 45°F 52°F 63°F (1997)
Min Temperature 24°F 41°F 30°F (1948)
Degree Days
Heating Degree Days 30 18  
Month to date heating degree days 173  
Since 1 July heating degree days 770  
Cooling Degree Days 0 0  
Month to date cooling degree days 0  
Year to date cooling degree days 189  
Moisture
Dew Point 27°F   
Average Humidity 85    
Maximum Humidity 100    
Minimum Humidity 46    
Precipitation
Precipitation 0.00 in 0.22 in 1.08 in (1962)
Month to date precipitation 2.04  
Year to date precipitation 27.61  
Snow
Snow 0.00 in in T in (1986)
Month to date snowfall  
Since 1 July snowfall  
Snow Depth in   
Wind
Wind Speed 2 mph   
Max Wind Speed 6 mph   
Max Gust Speed mph   
Visibility 10 miles   
Events     

Key: T is trace of precipitation, MM is missing value
Source: NWS Daily Summary
Time(PST)TemperatureDew PointHumidity Pressure Visibility Wind DirectionWind SpeedGust SpeedPrecipitationEvents Conditions
12:58 AM 26.1°F 25.3°F 97% 29.98 in 10.0 miles South 3.5 mph - N/A   Clear
1:58 AM 26.1°F 25.3°F 97% 30.00 in 10.0 miles SSW 2.3 mph - N/A   Clear
2:58 AM 26.2°F 25.3°F 96% 30.01 in 10.0 miles SSE 2.3 mph - N/A   Clear
3:58 AM 25.5°F 24.8°F 97% 30.01 in 10.0 miles SSW 1.2 mph - N/A   Clear
4:58 AM 24.6°F 23.7°F 96% 30.03 in 10.0 miles Calm Calm - N/A   Clear
5:58 AM 24.6°F 23.7°F 96% 30.06 in 10.0 miles Calm Calm - N/A   Clear
6:58 AM 24.1°F 23.2°F 96% 30.06 in 10.0 miles Calm Calm - N/A   Clear
7:58 AM 25.2°F 24.1°F 96% 30.09 in 10.0 miles Calm Calm - N/A   Mostly Cloudy
8:05 AM 26.6°F 24.8°F 93% 30.07 in 10.0 miles SSE 2.3 mph - N/A   Light Freezing Drizzle
8:58 AM 29.8°F 28.2°F 94% 30.10 in 10.0 miles SSE 1.2 mph - 0.00 in   Light Freezing Drizzle
9:39 AM 32.0°F 32.0°F 100% 30.09 in 10.0 miles SW 2.3 mph - N/A   Light Freezing Drizzle
9:58 AM 33.1°F 31.3°F 93% 30.12 in 10.0 miles WSW 2.3 mph - N/A   Overcast
10:02 AM 33.8°F 32.0°F 93% 30.10 in 10.0 miles WSW 3.5 mph - N/A   Overcast
10:58 AM 38.5°F 32.5°F 79% 30.13 in 10.0 miles West 2.3 mph - 0.00 in   Clear
11:58 AM 42.3°F 30.0°F 62% 30.14 in 10.0 miles Variable 2.3 mph - N/A   Clear
12:58 PM 44.1°F 29.5°F 57% 30.15 in 10.0 miles North 1.2 mph - N/A   Clear
1:58 PM 44.8°F 26.6°F 49% 30.16 in 10.0 miles North 5.8 mph - N/A   Clear
2:58 PM 45.0°F 25.2°F 46% 30.15 in 10.0 miles ESE 4.6 mph - N/A   Clear
3:58 PM 44.4°F 28.0°F 53% 30.17 in 10.0 miles Calm Calm - N/A   Clear
4:58 PM 39.9°F 27.9°F 62% 30.18 in 10.0 miles Calm Calm - N/A   Clear
5:58 PM 30.6°F 25.7°F 82% 30.21 in 10.0 miles South 2.3 mph - N/A   Clear
6:58 PM 29.8°F 27.1°F 90% 30.22 in 10.0 miles South 2.3 mph - N/A   Clear
7:58 PM 28.0°F 25.5°F 90% 30.22 in 10.0 miles South 1.2 mph - N/A   Clear
8:58 PM 27.1°F 25.5°F 94% 30.22 in 10.0 miles South 3.5 mph - N/A   Clear
9:58 PM 28.2°F 26.8°F 94% 30.24 in 10.0 miles South 3.5 mph - N/A   Clear
10:58 PM 27.9°F 26.4°F 94% 30.23 in 10.0 miles Calm Calm - N/A   Clear
11:58 PM 27.7°F 25.7°F 92% 30.24 in 10.0 miles Calm Calm - N/A   Clear
Moon Phase
Nov. 10 Nov. 13 Nov. 20 Nov. 28 Dec. 06
Sunrise:07:07 AM (PST) Moon Rise:03:05 AM (PST)11/10
Sunset:04:40 PM (PST) Moon Set:02:40 PM (PST)11/10

Copyright © 2014 The Weather Underground, Inc.